Flag for U.S.A. Weather past 2 weeks in Eau Claire, Wisconsin, U.S.A.

Now
69 °F

Overcast.


Feels Like: 69 °F
Forecast: 67 / 83 °F
Wind: 5 mph from Northeast

Location: Eau Claire County Airport

Current Time: Sep 3, 2015 at 2:26:07 AM

Latest Report: Sep 3, 2015 at 1:56 AM


Visibility: 10 mi

Pressure: 29.90 "Hg

Humidity: 93%

Dew point: 67 °F

Location of Eau ClaireLocation

Historic Weather in Eau Claire — Graph

°F

Eau Claire temperature yesterday

Maximum temperature yesterday: 74 °F (at 2:56 AM)
Minimum temperature yesterday: 67 °F (at 2:56 PM)
Average temperature yesterday: 71 °F

Past Weeks' High & Low Weather Summary

 TemperatureHumidityPressure
High86 °F (Sep 1, 1:56 PM)97% (Aug 19, 1:56 AM)30.20 "Hg (Aug 19, 1:56 AM)
Low45 °F (Aug 26, 4:56 AM)45% (Aug 20, 5:56 PM)29.45 "Hg (Aug 19, 5:56 AM)
Average64 °F79%29.93 "Hg
* Reported Aug 19 12:56 AM — Sep 3 12:56 AM, Eau Claire, Weather by CustomWeather, © 2015

Note: Actual official high and low records may vary slightly from our data, if they occured in-between our weather recording intervals... More about our weather records

Advertising

Eau Claire weather history for previous 24 hours

 ConditionsComfort  
Time TempWeatherWind HumidityBarometerVisibility
12:56 AM
Thu, Sep 3
69 °FMostly cloudy.3 mph93%29.91 "Hg9 mi
11:56 PM
Wed, Sep 2
69 °FOvercast.No wind93%29.91 "Hg10 mi
10:56 PM69 °FOvercast.5 mph93%29.91 "Hg10 mi
9:56 PM69 °FOvercast.5 mph93%29.91 "Hg10 mi
8:56 PM69 °FPassing clouds.6 mph93%29.89 "Hg10 mi
7:56 PM70 °FBroken clouds.5 mph90%29.88 "Hg10 mi
6:56 PM71 °FOvercast.5 mph84%29.87 "Hg10 mi
5:56 PM73 °FScattered clouds.6 mph84%29.87 "Hg10 mi
4:56 PM73 °FPassing clouds.3 mph84%29.88 "Hg10 mi
4:02 PM68 °FThundershowers. Fog.12 mph93%29.91 "Hg1 mi
3:03 PM67 °FThundershowers. Mostly cloudy.12 mph93%29.93 "Hg10 mi
2:56 PM67 °FThundershowers. Overcast.12 mph93%29.91 "Hg10 mi
1:56 PM71 °FLight rain. Mostly cloudy.18 mph87%29.92 "Hg10 mi
12:56 PM71 °FMore clouds than sun.8 mph90%29.94 "Hg10 mi
11:56 AM69 °FLight rain. Cloudy.8 mph93%29.94 "Hg10 mi
11:03 AM69 °FLight rain. Low clouds.6 mph93%29.98 "Hg7 mi
10:56 AM69 °FThundershowers. Fog.7 mph93%29.96 "Hg5 mi
10:04 AM70 °FLight rain. Fog.5 mph90%29.98 "Hg5 mi
9:56 AM70 °FThundershowers. Fog.8 mph93%29.94 "Hg4 mi
8:56 AM72 °FPartly sunny.No wind91%29.97 "Hg7 mi
7:56 AM73 °FPartly sunny.No wind94%29.95 "Hg7 mi
6:56 AM73 °FLight rain. Passing clouds.No wind90%29.91 "Hg7 mi
5:56 AM73 °FClear.5 mph90%29.93 "Hg7 mi
4:56 AM74 °FPassing clouds.5 mph91%29.92 "Hg8 mi
3:56 AM73 °FPassing clouds.5 mph94%29.90 "Hg7 mi
2:56 AM74 °FPassing clouds.3 mph91%29.91 "Hg8 mi
Weather by CustomWeather, © 2015

See weather overviewHow to use our weather pages